Mmabatho, South Africa

9:50 AM SAST on February 23, 2017 (GMT +0200)
Mafikeng International

Weather History for FAMM - November, 2012

Change the Weather History Date:

Friday, November 23, 2012

  Actual Average Record
Temperature  
Mean Temperature 73 °F -  
Max Temperature 87 °F - - ()
Min Temperature 59 °F - - ()
Cooling Degree Days 8    
Growing Degree Days 23 (Base 50)    
Moisture  
Dew Point 53 °F    
Average Humidity 52    
Maximum Humidity 82    
Minimum Humidity 20    
Precipitation  
Precipitation 0.03 in - - ()
Sea Level Pressure  
Sea Level Pressure 30.03 in    
Wind  
Wind Speed 10 mph ()    
Max Wind Speed 20 mph    
Max Gust Speed 29 mph    
Visibility 9.6 miles    
Events Rain , Thunderstorm    
T = Trace of Precipitation, MM = Missing Value Source: Averaged Metar Reports

Daily Weather History Graph

Daily Weather History Graph

Search for Another Location

Airport or City:

Trip Planner

Search our weather history database for the weather conditions in past years. The results will help you decide how hot, cold, wet, or windy it might be!

Date:

Astronomy

Nov. 23, 2012 Rise Set
Actual Time 5:18 AM SAST 6:50 PM SAST
Civil Twilight 4:53 AM SAST 7:15 PM SAST
Nautical Twilight 4:23 AM SAST 7:45 PM SAST
Astronomical Twilight 3:51 AM SAST 8:17 PM SAST
Moon 2:34 PM SAST 1:51 AM SAST
Length of Visible Light 14h 21m
Length of Day
13h 31m
Waxing Gibbous, 77% of the Moon is Illuminated
Nov 23
Waxing Gibbous
Nov 28
Full
Dec 6
Last Quarter
Dec 13
New
Dec 20
First Quarter

Hourly Weather History & Observations

Time (SAST) Temp. Heat Index Dew Point Humidity Pressure Visibility Wind Dir Wind Speed Gust Speed Precip Events Conditions
5:00 AM 61 °F - 53 °F 67%  in 19 mi NNE 10.4 mph - -   Scattered Clouds
5:00 AM 60.8 °F - 51.8 °F 72% 30.04 in - NNE 9.2 mph - N/A   Clear
6:00 AM 59.0 °F - 53.6 °F 82% 30.09 in 6.2 mi North 12.7 mph - N/A   Mostly Cloudy
7:00 AM 62.6 °F - 53.6 °F 72% 30.09 in 6.2 mi North 15.0 mph - N/A   Mostly Cloudy
8:00 AM 67 °F - 54 °F 55%  in 19 mi NNE 17.3 mph - -   Scattered Clouds
8:00 AM 66.2 °F - 53.6 °F 64% 30.12 in 6.2 mi NNE 17.3 mph - N/A   Partly Cloudy
8:17 AM 69.8 °F - 53.6 °F 56% 30.12 in 6.2 mi NNE 19.6 mph - N/A   Partly Cloudy
9:00 AM 71.6 °F - 55.4 °F 57% 30.09 in - North - - N/A   Partly Cloudy
11:00 AM 80 °F - 55 °F 31%  in 19 mi NNE 16.1 mph - -   Scattered Clouds
11:00 AM 78.8 °F - 53.6 °F 42% 30.06 in - NNE 16.1 mph 28.8 mph N/A   Clear
12:00 PM 80.6 °F 80.3 °F 53.6 °F 39% 30.04 in 6.2 mi North 10.4 mph - N/A   Partly Cloudy
1:00 PM 82.4 °F - 50.0 °F 32% 30.04 in 6.2 mi NNW 9.2 mph - N/A   Scattered Clouds
2:00 PM 86 °F - 51 °F 20%  in 19 mi NW 9.2 mph - -   Partly Cloudy
2:00 PM 84.2 °F - 50.0 °F 30% 30.01 in 6.2 mi NW 9.2 mph - N/A   Scattered Clouds
3:00 PM 84.2 °F - 48.2 °F 29% 29.95 in 6.2 mi NNW 6.9 mph 23.0 mph N/A   Partly Cloudy
4:00 PM 84.2 °F - 46.4 °F 27% 29.92 in 6.2 mi WNW 5.8 mph - N/A   Scattered Clouds
5:00 PM 77 °F - 56 °F 39%  in 6 mi West 15.0 mph - - Rain , Thunderstorm Thunderstorms and Rain
5:00 PM 75.2 °F - 55.4 °F 50% 29.95 in 6.2 mi West 13.8 mph 26.5 mph N/A Rain , Thunderstorm Thunderstorms and Rain
6:00 PM 66.2 °F - 55.4 °F 68% 29.98 in 6.2 mi South 12.7 mph - N/A   Mostly Cloudy
7:00 PM 68.0 °F - 51.8 °F 56% 30.01 in 6.2 mi South 8.1 mph - N/A   Mostly Cloudy
8:00 PM 68 °F - 55 °F 53%  in 19 mi South 4.6 mph - -   Scattered Clouds
8:00 PM 68.0 °F - 53.6 °F 60% 30.01 in 6.2 mi South 3.5 mph - N/A   Mostly Cloudy
9:00 PM 68.0 °F - 55.4 °F 64% 30.01 in - SW 3.5 mph - N/A   Unknown
10:00 PM 66.2 °F - 55.4 °F 68% 30.04 in - North 5.8 mph - N/A   Unknown
11:00 PM 66 °F - 55 °F 59%  in - NNE 11.5 mph - -  
11:00 PM 66.2 °F - 53.6 °F 64% 30.04 in - NNE 11.5 mph - N/A   Unknown